Dewpoint
52 51 51 51 50 51 49 47 47 46 46 46 46 46 47 47 49 47 48 47 48 47 47 47 48 48 48 48 48 46 46 46 45 44 43 44 42 42 42 42 43 43
52 53 53 52 52 51 50 48 47 47 46 46 46 46 47 48 48 47 47 48 48 47 47 47 47 47 47 47 46 45 45 45 45 46 42 42 42 42 43 44 44 43
53 54 53 52 52 52 51 49 48 46 47 47 47 47 47 49 47 47 47 48 47 47 47 47 47 47 47 46 46 46 45 45 44 45 43 41 42 42 43 43 43 44
54 54 54 53 53 52 51 49 48 47 47 47 47 48 49 51 47 47 47 51 47 47 47 47 48 47 47 47 46 45 45 44 44 45 44 45 44 43 43 44 45 45
55 55 55 55 54 52 51 49 48 47 48 48 48 49 50 49 47 47 47 47 46 46 46 47 47 47 47 46 45 45 46 45 45 44 44 44 45 44 45 45 44 44
56 56 55 55 53 52 51 50 49 48 48 48 48 50 49 49 47 47 47 46 46 46 46 46 46 46 46 46 45 45 46 45 46 44 43 45 45 46 44 44 43 43
55 55 53 52 52 52 51 50 50 49 48 48 50 49 49 49 48 47 47 47 46 48 46 47 46 47 46 46 46 45 46 46 46 45 43 44 47 45 45 43 43 42
54 54 53 51 51 51 52 51 50 50 50 49 48 49 49 49 48 48 48 46 46 46 46 47 46 46 46 45 46 46 46 47 46 45 44 44 45 46 44 44 43 43
54 54 53 51 50 51 51 51 51 50 50 49 49 49 50 49 49 48 48 47 46 47 47 47 47 46 46 46 46 46 46 47 47 46 45 45 45 44 44 44 42 44
53 53 53 53 50 50 50 51 50 50 51 49 49 49 49 50 48 48 48 47 47 47 47 46 47 47 46 46 45 45 46 45 46 46 45 45 45 43 43 45 44 43
52 53 53 53 52 51 50 51 51 51 51 50 49 49 50 50 50 49 49 48 49 48 48 48 48 48 48 47 47 46 46 46 46 46 46 45 45 44 45 45 45 43
52 52 53 53 52 51 51 52 52 52 52 52 52 51 51 51 51 51 50 50 50 51 51 50 50 50 49 48 47 47 47 47 47 46 46 45 45 45 44 45 45 44
52 52 52 52 53 52 52 52 53 53 52 53 53 53 52 52 52 52 52 52 52 53 53 53 52 51 51 50 50 49 48 47 46 47 47 46 45 45 45 45 44 44
52 52 52 53 53 53 53 53 53 53 53 53 53 53 53 53 53 53 53 53 53 53 53 53 53 52 52 52 51 51 49 49 48 47 47 46 46 46 46 45 45 44
52 53 53 53 53 53 53 53 53 52 53 53 54 53 53 53 53 53 53 53 53 53 53 54 53 53 53 52 52 52 51 50 49 48 48 47 47 47 46 45 45 45
53 53 53 53 53 53 53 53 52 52 53 53 53 53 53 53 53 54 53 53 53 54 53 54 53 53 52 49 49 51 51 51 51 51 50 49 49 49 48 47 46 45
53 53 53 53 53 53 52 53 53 53 53 53 53 53 52 53 54 53 53 53 53 53 53 52 53 52 47 45 44 45 49 50 50 50 50 49 49 49 49 49 48 46
51 52 52 52 52 52 52 52 52 52 52 52 52 52 53 53 53 53 52 53 52 52 52 52 51 48 45 44 43 43 45 50 50 50 50 49 49 49 48 48 48 47
50 50 50 49 50 51 52 52 52 52 52 52 52 52 52 52 52 52 52 52 51 51 51 50 50 43 42 42 42 42 41 44 49 49 49 49 49 49 49 48 47 47
47 48 48 48 48 48 50 51 51 51 51 50 50 50 50 50 50 50 50 50 50 50 50 49 48 44 40 39 39 39 39 40 45 46 47 47 48 48 48 47 47 46
45 45 46 46 46 46 48 49 49 48 48 47 48 48 49 49 49 49 49 49 49 49 48 47 45 41 38 38 39 39 39 40 44 43 42 42 42 42 43 44 43 44
43 44 45 44 43 43 46 47 46 47 47 44 44 44 44 45 46 47 47 47 47 46 46 45 42 38 38 38 39 39 39 42 42 41 41 41 41 41 42 42 43 42
40 41 41 40 40 41 43 43 44 41 41 41 43 42 44 44 44 44 45 45 44 44 45 43 39 38 38 39 39 38 40 41 41 40 40 39 39 39 40 42 44 42
39 38 39 39 37 39 39 40 40 39 39 40 42 41 41 41 40 41 40 41 41 40 40 40 37 38 38 38 38 39 40 40 40 39 38 37 37 37 37 38 41 42
39 38 37 37 36 37 38 38 37 37 38 38 39 41 41 40 42 41 38 37 37 39 42 37 37 39 37 37 38 38 40 39 39 38 37 36 35 34 34 34 35 38
39 39 38 37 36 36 38 37 38 39 39 39 40 42 42 40 40 40 37 35 35 35 37 36 37 37 39 37 38 38 38 38 38 38 37 35 35 34 33 33 33 34